sat.trackr.live / text

‹ back to catalog

STARS-X

NORAD 69502 · 2026-132A

PAYLOAD ACTIVE UNKNOWN

§ Identity

Operator
Country
JPN
Launch date
2026-06-12
Launch site
TANSC
Launch vehicle
Mass (kg)
RCS (m²)

External: N2YO · Heavens-Above · Gunter

§ Orbital elements

Epoch: 2026-09-20T03:13:21.450720Z

Period
96.05 min
Inclination
97.6832°
Eccentricity
0.0011258
Mean motion
14.99271160 rev/d
Perigee alt
561.3 km
Apogee alt
577.0 km
Semi-major
6,947.3 km
B*
1.1629e-4
RAAN
325.5270°
Arg perigee
319.1850°
Mean anomaly
40.8529°
Rev number
1,500

§ Raw data

STARS-X1 69502U 26132A   26263.13427605  .00001361  00000+0  11629-3 0  99952 69502  97.6832 325.5270 0011258 319.1850  40.8529 14.99271160 15001

JSON: /api/v1/satellites/69502 · /tle

For live sub-satellite position, see the globe view (requires WebGL).

§ Visibility from observer

Set your observer location to see the next 7 days of passes ≥ 10°. The values pass through the URL so the page stays shareable.

No JS? Fill the form by hand. The geolocation button needs JavaScript.